Location: Julian California
(33.0790°N, 116.6010°W)
Time: 22:26:29
(UTC-08:00)

Cosmos 1378 Rocket - Pass Details

Date: 19 May 2017
Orbit: 602 x 627 km, 82.5° (Epoch: 20 November)

Event Time Altitude Azimuth Distance (km) Brightness Sun altitude
Rises 20:13:22 0° 187° (S) 2,890 6.8 -6.7°
Reaches altitude 10° 20:15:35 10° 188° (S) 1,989 6.0 -7.1°
Maximum altitude 20:19:59 81° 275° (W) 637 3.7 -7.9°
Drops below altitude 10° 20:24:27 10° 4° (N) 2,002 6.5 -8.7°
Sets 20:26:41 0° 6° (N) 2,912 7.4 -9.1°
